Вернуться в каталог

SATCOM 3 DEB

LostHEO
NORAD 49960·DEBRIS·🇺🇸 United States

Запущен Dec 7, 1979 с Cape Canaveral Space Force Station

Loading…

Ближайшие Пролёты (ближайшие 24 часа)

TLE

УстаревшееSource: Space-Track

Эпоха: Dec 14, 2023, 02:31 UTC

1 49960U 79101AE  23348.10503287 -.00000043  00000-0  00000+0 0  9999
2 49960   8.6072 297.6836 5425695  50.0430 346.3214  1.86916210 59339

Отслеживайте SATCOM 3 DEB в реальном времени с AllMySat

Download on the App Store